This is the latest recevied weather packets stored in our database for station/object NK2J. If no packets are shown the sender has not sent any weather packets the latest 10 day(s).
| Time | Temp. | Humidity | Pressure | Rain* | Wind** | Luminosity | Snow |
|---|---|---|---|---|---|---|---|
| 1777664203 | 27.78° C | 27% | 1013.3 hPa | 0 mm | - | 761 W/m² | - |
| 1777663901 | 27.78° C | 27% | 1013.2 hPa | 0 mm | - | 763 W/m² | - |
| 1777663598 | 27.78° C | 27% | 1013.2 hPa | 0 mm | - | 763 W/m² | - |
| 1777663295 | 27.78° C | 28% | 1013.3 hPa | 0 mm | - | 763 W/m² | - |
| 1777662992 | 27.78° C | 28% | 1013.2 hPa | 0 mm | - | 764 W/m² | - |
| 1777662689 | 27.78° C | 28% | 1013.2 hPa | 0 mm | - | 764 W/m² | - |
| 1777662385 | 27.78° C | 30% | 1013.5 hPa | 0 mm | - | 759 W/m² | - |
| 1777662081 | 26.67° C | 31% | 1013.6 hPa | 0 mm | - | 760 W/m² | - |
| 1777661778 | 26.67° C | 29% | 1013.8 hPa | 0 mm | - | 759 W/m² | - |
| 1777661473 | 27.22° C | 28% | 1013.5 hPa | 0 mm | - | 756 W/m² | - |
| 1777661170 | 26.67° C | 29% | 1013.8 hPa | 0 mm | - | 754 W/m² | - |
| 1777660864 | 26.11° C | 28% | 1014 hPa | 0 mm | - | 753 W/m² | - |
| 1777660561 | 26.67° C | 29% | 1013.8 hPa | 0 mm | - | 748 W/m² | - |
| 1777660257 | 26.67° C | 31% | 1014 hPa | 0 mm | - | 744 W/m² | - |
| 1777659954 | 26.11° C | 29% | 1014.1 hPa | 0 mm | - | 743 W/m² | - |
| 1777659651 | 26.11° C | 29% | 1014.2 hPa | 0 mm | - | 738 W/m² | - |
| 1777659348 | 26.11° C | 30% | 1014.4 hPa | 0 mm | - | 734 W/m² | - |
| 1777659045 | 26.11° C | 31% | 1014.3 hPa | 0 mm | - | 728 W/m² | - |
| 1777658743 | 26.11° C | 31% | 1014.4 hPa | 0 mm | - | 723 W/m² | - |
| 1777658439 | 25.56° C | 31% | 1014.4 hPa | 0 mm | - | 717 W/m² | - |
| 1777658136 | 26.11° C | 31% | 1014.6 hPa | 0 mm | - | 710 W/m² | - |
| 1777657833 | 25° C | 32% | 1014.5 hPa | 0 mm | - | 703 W/m² | - |
| 1777657530 | 25.56° C | 32% | 1014.6 hPa | 0 mm | - | 696 W/m² | - |
| 1777657228 | 25° C | 32% | 1014.8 hPa | 0 mm | - | 689 W/m² | - |
| 1777656924 | 25° C | 31% | 1014.6 hPa | 0 mm | - | 680 W/m² | - |
* Rain latest hour (hover to see other rain measurements)
** Current wind speed in m/s (hover to see current wind gust speed)